Terminal Aerodrome Forecast
Issued by NWS Newport/Morehead City, NC

Home | Current Version | Previous Version | Graphics & Text | Print | Product List | Glossary On
Versions: 1 2 3 4 5 6 7 8 9 10 11 12
531
FTUS42 KMHX 230533
TAFEWN
TAF
KEWN 230533Z 2306/2406 21003KT P6SM SCT250
     FM231700 21007KT P6SM SCT050=

USA.gov is the U.S. government's official web portal to all federal, state and local government web resources and services.